sat.trackr.live / text

‹ back to catalog

KINEIS-5A

NORAD 62084 · 2024-219D

PAYLOAD ACTIVE UNKNOWN

§ Identity

Operator
Country
FR
Launch date
2024-11-25
Launch site
RLLB
Launch vehicle
Mass (kg)
RCS (m²)

External: N2YO · Heavens-Above · Gunter

§ Orbital elements

Epoch: 2026-05-25T04:12:01.345248Z

Period
97.82 min
Inclination
97.9023°
Eccentricity
0.0005609
Mean motion
14.72026134 rev/d
Perigee alt
650.7 km
Apogee alt
658.6 km
Semi-major
7,032.7 km
B*
1.3170e-4
RAAN
305.1059°
Arg perigee
33.1022°
Mean anomaly
327.0536°
Rev number
8,038

§ Raw data

KINEIS-5A1 62084U 24219D   26145.17501557  .00000779  00000+0  13170-3 0  99942 62084  97.9023 305.1059 0005609  33.1022 327.0536 14.72026134 80381

JSON: /api/v1/satellites/62084 · /tle

For live sub-satellite position, see the globe view (requires WebGL).

§ Visibility from observer

Set your observer location to see the next 7 days of passes ≥ 10°. The values pass through the URL so the page stays shareable.

No JS? Fill the form by hand. The geolocation button needs JavaScript.

§ Radio — SatNOGS DB

ModeDescriptionDownlinkUplink
FM S-band telemetry 2.265 GHz
BPSK PMT-A3 Telemetry (ARGOS-3) 400.638 MHz

2 transmitters · refreshed weekly from db.satnogs.org